Погода в Криничном

Украина / Одесская область     45°32′09″N   28°40′04″E
темп.,
°C
ветер,
м/с
пор.,
м/с
влажн.,
%
обл.,
%
осадки,
мм/ч
давл.,
гПа
погр.,
м
2 марта, вт
вт223:00+2с598179 0.0 1033525
02:00+3с487286 0.0 1034664
05:00+1ссз458860 0.0 1033183
08:00+2сз348359 0.0 1034160
11:00+5з346775 0.0 1033775
14:00+7зсз356087 0.0 1031859
17:00+8з585227 0.0 1028436
20:00+6зюз6107339 0.0 1027228
3 марта, ср
ср323:00+5зсз597920 0.0 1028178
02:00+5ссз6147743 0.0 1029454
05:00+4ссз613830 0.0 1029409
08:00+4с59845 0.0 1031509
11:00+8с46637 0.0 1031847
14:00+10ссз56515 0.0 10301054
17:00+10ссз34540 0.0 1029998
20:00+7всв01660 0.0 102922
4 марта, чт
чт423:00+6ю23700 0.0 102826
02:00+5ююз34750 0.0 102647
05:00+5ююз46780 0.0 1024102
08:00+6ююз510760 0.0 1022287
11:00+10юз710570 0.0 1020608
14:00+13юз710491 0.0 1017650
17:00+12юз59522 0.0 1015409
20:00+9ююз46651 0.0 1015101
5 марта, пт
пт523:00+8юз47700 0.0 1014104
02:00+7зюз447525 0.0 101366
05:00+6юз237469 0.0 101222
08:00+7юз237281 0.0 101279
11:00+10зюз565778 0.0 1011327
14:00+13зюз574263 0.0 1010600
17:00+13зюз34420 0.0 1010167
20:00+11юз45477 0.0 101161
6 марта, сб
сб623:00+9зсз455192 0.0 101267
02:00+7с8138396 0.0 1014351
05:00+6ссз71183100 0.0 1016533
08:00+3с91289100 0.0 1019645
11:00+4с81161100 0.3 10221109
14:00+5с81046100 0.6 10231600
17:00+4с5842100 0.0 10251691
20:00+2ссв594393 0.0 1027537